Regional Weather Roundup
Issued by NWS

Home | Current Version | Previous Version | Text Only | Print | Product List | Glossary On
Versions: 1 2 3 4 5 6 7 8 9 10 11 12 13 14 15 16 17 18 19 20 21 22 23 24 25 26 27 28 29 30 31 32 33 34 35 36 37 38 39 40 41 42 43 44 45 46 47 48 49 50
000
ASUS44 KOUN 010410
RWROK

WEATHER ROUNDUP FOR OKLAHOMA
NATIONAL WEATHER SERVICE NORMAN OK
1000 PM CST SAT JAN 31 2015

NOTE: "FAIR" INDICATES FEW OR NO CLOUDS BELOW 12,000 FEET WITH NO
      SIGNIFICANT WEATHER AND/OR OBSTRUCTIONS TO VISIBILITY.

OKZ001>007-009>012-014-015-017-010500-
NORTHWEST OKLAHOMA AND THE PANHANDLE

CITY           SKY/WX    TMP DP  RH WIND       PRES   REMARKS
GAGE           CLOUDY    41  39  93 S13       29.82F
ENID/WOODRING  LGT RAIN  41  41 100 S9        29.85F
$$

OKZ016-021>023-033>039-044-045-010500-
SOUTHWEST OKLAHOMA

CITY           SKY/WX    TMP DP  RH WIND       PRES   REMARKS
LAWTON/REGL    LGT RAIN  45  43  93 SE7       29.88F FOG
LAWTON/FT SILL DRIZZLE   44  44 100 S7        29.87F FOG
FREDERICK      FOG       45  44  97 SE6       29.86S VSB 3/4
CLINTON        FOG       41  40  96 S16       29.87R VSB 1/2
HOBART         LGT RAIN  42  42 100 S9        29.88F FOG
ALTUS AFB      CLOUDY    43  43 100 S2        29.88S FOG
$$

OKZ018>020-024>031-010500-
CENTRAL OKLAHOMA

CITY           SKY/WX    TMP DP  RH WIND       PRES   REMARKS
OKLAHOMA CITY  LGT RAIN  44  41  89 S12       29.87F FOG
OKC/WILEY POST LGT RAIN  43  41  93 S15       29.88F FOG
OKC/TINKER AFB LGT RAIN  43  43 100 S15       29.88S
STILLWATER     LGT RAIN  41  39  93 S10       29.87F FOG
GUTHRIE        LGT RAIN  42  41  96 S9        29.87F FOG
$$

OKZ008-013-054>072-010500-
NORTHEAST OKLAHOMA

CITY           SKY/WX    TMP DP  RH WIND       PRES   REMARKS
TULSA          LGT RAIN  42  41  96 S12       29.89F FOG
TULSA/JONES    LGT RAIN  43  40  89 S8G17     29.91F
PONCA CITY     LGT RAIN  41  40  96 S8        29.86F FOG
BARTLESVILLE   LGT RAIN  40  39  97 S6        29.90F FOG
MUSKOGEE       LGT RAIN  41  38  89 SE12      29.95F
$$

OKZ032-040>043-046>053-073>077-010500-
SOUTH CENTRAL/SOUTHEAST OKLAHOMA

CITY           SKY/WX    TMP DP  RH WIND       PRES   REMARKS
ARDMORE/DWNTWN RAIN      45  45 100 S5        29.90F
MCALESTER      LGT RAIN  45  40  82 SE9       29.93F
$$



USA.gov is the U.S. government's official web portal to all federal, state and local government web resources and services.